Flag for Brazil Weather past 2 weeks in Porto Acre, Acre, Brazil

Now
81 °F

Passing clouds.


Feels Like: 85 °F
Forecast: N/A
Wind: 2 mph from North

Location: Rio Branco Airport

Current Time: Jul 2, 2015 at 6:21:25 PM

Latest Report: Jul 2, 2015 at 6:00 PM


Visibility: N/A

Pressure: 29.83 "Hg

Humidity: 79%

Dew point: 73 °F

Location of Porto AcreLocation

Historic Weather in Porto Acre — Graph

°F

Porto Acre temperature yesterday

Maximum temperature yesterday: 90 °F (at 1:00 PM)
Minimum temperature yesterday: 72 °F (at 1:00 AM)
Average temperature yesterday: 79 °F

Past Weeks' High & Low Weather Summary

 TemperatureHumidityPressure
High91 °F (Jun 28, 1:00 PM)100% (Jun 18, 12:00 AM)30.15 "Hg (Jun 18, 12:00 AM)
Low59 °F (Jun 20, 5:00 AM)38% (Jun 27, 1:00 PM)29.83 "Hg (Jun 29, 3:00 PM)
Average76 °F79%29.99 "Hg
* Reported Jun 17 5:00 PM — Jul 2 5:00 PM, Porto Acre, Weather by CustomWeather, © 2015

Note: Actual official high and low records may vary slightly from our data, if they occured in-between our weather recording intervals... More about our weather records

Advertising

Porto Acre weather history for previous 24 hours

 ConditionsComfort  
Time TempWeatherWind HumidityBarometerVisibility
5:00 PM
Thu, Jul 2
84 °FPassing clouds.5 mph66%29.83 "HgN/A
4:00 PM88 °FScattered clouds.5 mph59%29.83 "HgN/A
3:00 PM86 °FScattered clouds.6 mph66%29.83 "HgN/A
2:00 PM88 °FPartly sunny.6 mph59%29.86 "HgN/A
1:00 PM88 °FPartly sunny.6 mph59%29.89 "HgN/A
12:00 PM86 °FPartly sunny.6 mph62%29.92 "HgN/A
11:00 AM86 °FPartly sunny.7 mph66%29.95 "HgN/A
10:00 AM84 °FScattered clouds.7 mph70%29.98 "HgN/A
9:00 AM82 °FPassing clouds.7 mph74%30.01 "HgN/A
8:00 AM77 °FSunny.6 mph89%29.98 "Hg10 mi
7:00 AM75 °FSunny.No wind89%29.98 "Hg10 mi
6:00 AM70 °FClear.No wind100%29.95 "Hg10 mi
5:00 AM70 °FClear.No wind94%29.92 "Hg5 mi
4:00 AM72 °FClear.No wind94%29.89 "Hg10 mi
3:00 AM72 °FClear.No wind94%29.89 "Hg10 mi
2:00 AM72 °FClear.No wind94%29.89 "Hg10 mi
1:00 AM72 °FClear.No wind100%29.92 "Hg10 mi
12:00 AM72 °FClear.2 mph94%29.92 "Hg10 mi
11:00 PM
Wed, Jul 1
73 °FClear.2 mph94%29.92 "Hg10 mi
10:00 PM73 °FClear.3 mph94%29.95 "Hg10 mi
9:00 PM77 °FThundershowers. Passing clouds.6 mph89%29.95 "HgN/A
8:00 PM77 °FThundershowers. Passing clouds.3 mph83%29.92 "HgN/A
7:00 PM77 °FThundershowers. Passing clouds.3 mph89%29.89 "HgN/A
6:00 PM79 °FThundershowers. Passing clouds.2 mph84%29.89 "HgN/A
Weather by CustomWeather, © 2015

See weather overviewHow to use our weather pages